User: anonymous   Login
Location: Unspecified
(0.0000°N, 0.0000°E)
Time: 22:31:04
(UTC+00:00)
Language:

STARLINK-30518 - Orbit

View from above orbital plane
View from above orbital plane
View from above satellite
View from above satellite

Ground track
Ground track

The orbit is defined by the following mean orbital elements,

1 58029U          26145.54048378 +.00000000 +00000-0 +92090-4 0 00008
2 58029  53.1612  81.3144 0001510  75.6749 284.4420 15.30200565    01
Epoch (UTC): 25 May 2026 12:58:17
Eccentricity: 0.0001510
inclination: 53.1612°
perigee height: 474 km
apogee height: 476 km
right ascension of ascending node: 81.3144°
argument of perigee: 75.6749°
revolutions per day: 15.30200565
mean anomaly at epoch: 284.4420°

The dashed part of the orbit path shows where the satellite is in the earth's shadow,  

DLR